Regional Weather Roundup
Issued by NWS Sterling, VA

Home | Current Version | Previous Version | Graphics & Text | Print | Product List | Glossary On
Versions: 1 2 3 4 5 6 7 8 9 10 11 12 13 14 15 16 17 18 19 20 21 22 23 24 25 26 27
000
ASUS41 KLWX 240011
RWRLWX

REGIONAL WEATHER ROUNDUP
NATIONAL WEATHER SERVICE BALTIMORE MD/WASHINGTON DC
800 PM EDT SUN APR 23 2017

Note: "FAIR" indicates few or no clouds below 12,000 feet
with no significant weather and/or obstructions to visibility.
 TC=TEMPERATURE CELSIUS

 * =Non NWS site. Station does not report precipitation (e.g. rain,
    snow, etc.), thunder, or fog.

DCZ001-MDZ009-015-VAZ040>042-051-053>054-240100-
WASHINGTON METRO

CITY           SKY/WX    TMP DP  RH WIND       PRES   REMARKS
WASHINGTON NAT CLOUDY    58  45  62 SE6       30.10R
DULLES         CLOUDY    55  43  63 SE5       30.09R
ANDREWS AFB    CLOUDY    55  45  68 CALM      30.08S
FT BELVOIR     PTCLDY    55  46  71 CALM      30.09R
QUANTICO       MOCLDY    58  48  69 S3        30.10R
COLLEGE PARK*  CLOUDY    55  45  71 CALM      30.09S
LEESBURG*      CLOUDY    59  45  58 SE3       30.09S
MANASSAS*        N/A     57  44  62 E5        30.09S

$$

MDZ006>007-011-014-240100-
BALTIMORE METRO

CITY           SKY/WX    TMP DP  RH WIND       PRES   REMARKS
BWI AIRPORT    CLOUDY    56  46  69 CALM      30.09S
MD SCIENCE CTR   N/A     59  41  51 MISG      30.10S
MARTIN STATE   CLEAR     57  48  72 CALM      30.11S
ANNAPOLIS      CLOUDY    59  46  62 NE3       30.09S
FORT MEADE*    CLOUDY    52  46  82 CALM      30.12R

$$

MDZ012-015-019>023-240100-
MARYLAND EASTERN SHORE

CITY           SKY/WX    TMP DP  RH WIND       PRES   REMARKS
OCEAN CITY     CLOUDY    51  45  79 E7        30.10S
SALISBURY      CLOUDY    52  47  83 NE6       30.10R
BAY BRIDGE AP* CLOUDY    55  46  71 CALM      30.10R
CAMBRIDGE*     CLOUDY    55  46  71 E6        30.09S
EASTON*        CLOUDY    57  45  62 CALM      30.13R

$$

MDZ017>025-240100-
SOUTHERN MARYLAND

CITY           SKY/WX    TMP DP  RH WIND       PRES   REMARKS
PATUXENT RIVER CLOUDY    57  50  77 E10       30.08R
ST INIGOES     MOCLDY    56  50  80 E5        30.08R
LEONARDTOWN*   CLOUDY    54  46  76 CALM      30.10S

$$

MDZ003>005-240100-
NORTH CENTRAL MARYLAND

CITY           SKY/WX    TMP DP  RH WIND       PRES   REMARKS
FREDERICK*     CLEAR     59  46  63 CALM      30.11S
HAGERSTOWN APT CLOUDY    59  45  59 S6        30.07S
WESTMINSTER*   CLOUDY    57  45  62 S5          N/A

$$

MDZ501>502-240100-
WESTERN MARYLAND

CITY           SKY/WX    TMP DP  RH WIND       PRES   REMARKS
OAKLAND*         N/A     46  36  66 E7        30.05S
CUMBERLAND*    PTCLDY    59  39  47 S6        30.10

$$

VAZ025>031-240100-
SHENANDOAH VALLEY

CITY           SKY/WX    TMP DP  RH WIND       PRES   REMARKS
WINCHESTER*    CLOUDY    52  43  71 SE3       30.08S
FRONT ROYAL*   CLOUDY    54  43  66 CALM      30.07S
LURAY*         CLOUDY    54  45  71 E3        30.07S
NEW MARKET*    CLOUDY    53  42  65 E5        30.06S
STAUNTON*      CLOUDY    51  43  73 SE3       30.08S
WAYNESBORO*    CLOUDY    49  45  86 SE3       30.07S

$$

WVZ021-048>050-054>055-240100-
EASTERN WEST VIRGINIA PANHANDLE

CITY           SKY/WX    TMP DP  RH WIND       PRES   REMARKS
MARTINSBURG    CLOUDY    56  43  61 S3        30.07R
PETERSBURG*    CLOUDY    57  43  59 SE3       30.06R

$$

VAZ036>039-050-240100-
CENTRAL FOOTHILLS

CITY           SKY/WX    TMP DP  RH WIND       PRES   REMARKS
CHARLOTTESVILL CLOUDY    54  46  74 CALM      30.07S
CULPEPER*      CLOUDY    54  50  85 CALM      30.09F
ORANGE*        DRIZZLE   54  46  76 CALM      30.08S
GORDONSVILLE*  CLOUDY    53  49  85 CALM      30.08R
WARRENTON*     CLOUDY    55  46  73 CALM      30.08S

$$

VAZ055>057-240100-
NORTH AND CENTRAL PIEDMONT

CITY           SKY/WX    TMP DP  RH WIND       PRES   REMARKS
FREDERICKSBRG* CLOUDY    56  48  74 CALM      30.08S
STAFFORD*      CLOUDY    55  50  83 CALM      30.13R

$$

NCZ024-NYZ072-PAZ021-071-VAZ022-071-240100-
OTHER REGIONAL OBSERVATIONS

CITY           SKY/WX    TMP DP  RH WIND       PRES   REMARKS
NEW YORK CITY  MOCLDY    53  41  63 VRB7      30.12R
PHILADELPHIA   CLOUDY    57  46  66 S7        30.10R
PITTSBURGH     CLOUDY    66  31  27 SE6       30.02R
ROANOKE        LGT RAIN  48  48 100 S3        30.06S
RICHMOND       CLOUDY    54  52  93 N5        30.06S
RALEIGH        LGT RAIN  53  51  93 NE13G21   29.99F

$$

ANZ530>537-240100-
MARINE OBSERVATIONS

STATION/POSITION TIME  TEMP    WIND        PRES
                       AIR SEA DIR/SP/G
                 (UTC) (F)     (DEG/KT/KT) (MB)
THOMAS PT LIGHT  0000   57 59   50/  3/  3   N/A
BALT KEY BRIDGE  2348   58     120/  3/  4 1019.0F
COVE POINT       2348   57      50/  5/  6 1019.2F
LEWISETTA        2348   57 62  120/ 10/ 12 1018.3R
SOLOMONS ISLAND  2348           30/  4/  6   N/A
PINEY POINT      2348           90/  3/  3   N/A

$$





USA.gov is the U.S. government's official web portal to all federal, state and local government web resources and services.